Theta_e
313 309 307 307 308 308 309 309 309 309 309 309 310 311 313 315 315 310 309 313 314 316 316 317 317 318 316 312 310 305 305 306 312 315 314 313 315 315 314 315 315 315 316 316 317
310 309 309 309 310 310 310 309 309 309 309 310 310 312 313 315 317 313 315 317 316 316 318 317 316 315 312 312 310 307 308 312 311 315 314 313 314 314 315 314 315 314 315 316 316
306 308 310 310 310 309 308 308 309 310 310 311 312 313 314 317 312 313 317 317 316 317 318 316 315 314 312 311 311 313 312 313 315 315 313 313 313 314 315 314 314 314 314 314 316
305 307 309 309 309 309 309 309 310 311 312 313 314 314 315 318 313 316 318 318 318 318 317 316 311 312 312 313 312 316 314 313 313 313 312 313 313 314 314 314 313 313 313 313 313
308 309 310 309 310 311 310 311 311 311 313 313 314 316 317 316 315 318 318 318 318 318 317 314 314 313 314 313 313 314 314 312 312 312 313 313 313 314 313 312 312 312 313 312 312
310 310 309 310 311 310 311 311 311 312 312 313 314 316 322 315 317 318 318 318 317 317 317 317 316 315 315 314 313 314 313 313 313 313 313 313 312 314 313 309 311 311 311 310 311
310 310 310 311 311 311 311 312 312 312 313 314 314 315 322 315 317 317 317 317 316 316 316 317 317 316 315 314 313 314 315 313 314 315 313 312 312 313 311 310 311 311 310 310 310
311 311 311 311 312 313 312 312 312 313 313 313 313 319 319 322 319 316 316 316 316 315 316 315 315 315 315 314 312 315 313 315 314 310 312 312 311 312 311 310 311 311 310 310 309
306 312 312 313 313 314 315 316 314 313 313 313 314 315 314 318 317 317 316 316 316 316 316 315 315 314 312 313 311 310 315 314 311 310 311 312 311 311 310 310 310 310 309 309 309
304 310 313 314 314 316 317 319 319 319 314 317 317 316 316 319 317 316 316 316 316 314 313 311 307 310 308 310 314 313 311 310 310 311 310 311 310 311 311 310 310 310 310 311 312
305 306 313 314 315 316 319 319 313 313 313 315 315 318 318 319 317 315 316 316 315 312 313 311 311 312 313 312 312 313 311 311 311 311 313 310 311 310 310 310 310 309 315 315 314
306 305 310 314 315 316 318 316 317 317 315 314 313 315 318 319 318 317 316 315 314 314 312 311 313 313 313 313 314 314 314 313 312 313 313 311 312 311 312 312 310 317 316 315 315
305 307 307 313 314 318 317 317 318 317 314 316 316 317 317 318 318 316 314 313 314 314 314 313 315 315 315 315 315 315 314 313 313 313 311 311 313 313 311 313 317 316 316 315 316
305 308 306 313 317 318 318 319 318 317 319 324 320 319 316 315 315 315 315 314 314 314 313 313 313 316 315 316 315 315 314 313 313 312 311 312 314 313 312 315 317 316 315 315 315
307 307 308 313 315 319 319 317 318 321 324 323 317 316 312 314 314 317 316 315 315 315 314 315 316 317 315 315 314 314 313 312 312 311 312 312 310 311 315 319 317 317 319 317 316
310 308 308 316 319 321 318 317 320 323 325 317 315 315 314 314 316 318 318 315 315 315 316 314 315 315 315 315 313 313 311 310 309 309 311 313 314 314 314 319 318 319 318 318 317
312 309 309 315 317 316 318 317 323 321 318 317 316 314 315 317 318 319 318 316 316 317 317 315 316 315 315 315 312 311 309 309 312 310 313 312 315 314 312 317 318 319 319 316 316
312 312 313 311 313 317 317 319 326 319 315 315 315 315 318 317 318 318 317 316 318 315 314 318 319 316 316 315 315 313 311 310 314 314 315 314 317 316 314 316 316 317 317 313 312
317 319 321 322 320 319 315 320 315 315 315 317 317 318 317 317 317 317 317 318 319 317 318 317 318 316 316 314 313 313 310 311 309 313 318 315 315 313 316 317 316 315 313 310 310
320 322 321 320 321 319 319 324 317 317 317 317 317 317 318 318 318 317 317 318 319 318 314 316 317 315 316 313 312 313 312 313 310 317 322 316 315 315 313 314 313 314 311 309 308
320 316 317 316 318 316 321 321 316 318 317 317 317 318 318 318 318 317 318 317 319 318 316 315 311 315 315 315 313 313 312 316 317 322 321 319 315 309 312 312 311 312 310 309 307
313 316 317 316 314 310 315 317 316 318 317 317 316 317 318 317 316 317 318 317 317 315 316 315 311 314 316 314 313 312 313 313 309 315 313 319 318 312 310 313 313 312 310 308 306
310 313 315 313 310 311 312 317 317 318 317 314 317 314 316 316 313 316 318 316 315 315 314 313 309 308 315 311 311 314 313 313 314 314 319 321 317 312 313 316 313 311 308 307 307
308 311 306 305 306 311 312 315 316 316 315 313 314 313 312 313 313 313 313 314 315 315 319 317 312 313 316 313 311 315 315 316 317 320 318 318 317 315 315 314 311 309 308 307 307
303 308 306 305 306 310 311 311 313 313 312 310 311 312 312 312 312 312 313 314 313 315 315 313 314 312 314 314 315 316 317 317 319 318 320 319 318 317 315 311 310 309 308 308 307
304 302 302 304 307 308 308 310 313 312 311 312 312 311 311 311 311 312 313 312 312 311 312 308 312 314 315 315 316 318 317 317 317 318 319 318 318 313 310 309 309 309 308 306 305
305 304 303 304 307 307 308 310 311 309 310 312 309 308 310 312 312 310 310 310 311 310 309 309 312 312 314 317 319 319 319 318 317 316 313 317 315 310 311 310 309 307 306 305 305
Wind_Speed
13 8 6 7 7 7 8 10 11 10 9 8 8 9 12 16 9 6 4 4 7 15 18 22 17 15 5 3 2 4 5 1 3 4 6 4 5 2 3 3 2 2 0 2 4
13 8 7 7 7 8 9 10 10 9 7 7 7 9 12 15 8 9 6 8 11 17 18 18 10 12 4 5 4 5 4 6 4 2 3 5 3 6 3 3 4 3 3 4 5
14 10 8 8 9 10 11 11 9 7 6 7 7 9 11 8 5 5 7 10 13 17 15 15 7 2 6 4 6 1 3 4 2 1 2 4 4 3 2 9 8 7 8 7 4
14 11 10 10 11 12 12 10 7 6 6 7 8 11 8 3 4 4 6 10 13 15 15 12 9 5 5 4 4 2 2 3 5 6 6 6 5 4 4 8 9 8 6 6 10
14 12 12 12 14 13 11 8 7 6 6 7 9 13 3 4 1 3 7 9 11 14 10 4 6 3 4 3 4 3 4 8 9 8 6 3 6 3 4 9 10 10 8 8 9
14 13 13 14 15 13 10 8 7 6 6 7 10 11 3 4 3 3 7 11 11 6 7 4 1 1 1 2 1 3 5 8 7 7 4 3 5 3 5 9 10 10 11 9 7
14 12 13 14 14 12 10 7 6 5 5 7 11 9 3 5 3 5 7 9 5 2 2 4 1 2 1 7 1 3 7 9 4 3 4 1 8 7 5 6 9 10 9 10 10
14 12 12 13 13 12 10 7 5 4 5 7 10 5 4 2 5 7 6 7 4 7 7 10 5 3 2 1 7 6 4 5 7 7 3 6 8 5 6 7 9 10 9 10 11
14 11 11 12 12 12 11 8 5 3 6 7 4 5 7 7 4 7 5 3 6 7 9 5 4 2 5 3 5 6 4 5 9 4 4 2 8 7 6 6 10 8 8 9 10
16 10 9 11 11 12 14 6 4 3 1 3 1 2 5 2 5 5 7 7 3 4 7 8 6 3 3 5 4 7 4 5 7 6 6 7 11 3 8 7 9 10 8 7 9
19 9 7 8 10 11 12 3 7 5 1 5 7 4 7 7 6 7 4 3 3 5 2 4 6 2 5 5 7 5 4 7 5 9 3 7 11 4 9 7 10 8 10 11 10
22 11 6 6 8 10 5 4 3 5 7 9 8 5 16 7 5 8 6 4 3 4 1 6 2 8 5 5 2 4 3 5 5 5 5 10 19 7 6 6 7 3 8 9 11
24 14 5 5 8 4 5 6 6 6 2 7 4 4 5 9 6 10 8 4 5 3 5 5 8 3 3 4 5 3 1 5 7 4 6 6 17 6 5 2 4 4 6 7 8
23 16 6 4 0 5 1 13 10 2 4 4 1 2 1 2 4 5 8 7 2 8 4 5 4 1 1 2 2 4 2 5 10 6 5 3 14 3 1 4 3 6 7 8 8
23 16 7 2 3 1 8 16 9 2 3 3 2 1 8 2 3 10 5 3 4 5 5 10 3 2 2 3 2 5 5 5 9 5 3 5 3 6 3 2 5 7 4 6 8
25 13 5 2 3 1 13 14 1 5 1 4 3 6 6 8 6 8 8 7 2 2 2 4 4 3 3 2 4 5 5 6 4 3 1 3 4 5 4 4 5 4 5 5 8
24 7 3 4 1 8 15 4 4 4 4 5 3 5 1 5 5 5 6 7 3 5 4 6 5 2 4 3 3 10 6 4 6 4 5 3 4 9 6 7 6 4 4 4 1
14 2 0 6 3 10 6 5 4 3 2 2 3 4 3 7 3 7 6 6 4 3 1 1 6 3 3 2 3 2 5 4 5 3 6 5 6 6 8 5 6 5 1 3 5
7 4 2 3 3 3 5 5 4 1 2 3 4 4 4 5 3 6 5 2 2 2 2 3 4 4 5 3 4 2 1 3 1 2 4 4 6 8 6 9 7 7 4 5 5
6 5 6 8 2 4 5 1 2 3 1 3 2 1 2 4 5 7 4 3 4 2 3 4 6 4 1 3 2 3 4 0 2 3 5 4 5 7 6 9 9 7 7 6 6
5 4 16 5 3 5 3 1 2 3 4 2 4 3 3 2 1 2 4 7 5 4 2 2 3 5 2 4 7 2 2 1 3 3 3 4 6 5 11 13 7 8 7 6 9
4 3 16 5 4 2 1 5 3 3 4 3 3 1 3 2 2 4 6 7 4 1 3 1 3 4 10 10 4 6 7 6 4 5 5 5 14 12 9 4 6 10 6 7 8
2 2 10 7 4 4 6 6 4 6 4 5 2 2 2 1 4 4 4 5 8 3 4 2 2 4 10 5 1 3 5 5 3 3 10 8 8 4 8 12 9 8 7 8 10
3 4 4 5 1 3 4 5 6 7 1 4 3 5 4 3 5 5 8 6 3 6 17 6 5 8 10 15 4 11 12 14 6 4 10 14 22 23 17 11 10 7 8 10 13
4 1 2 4 4 4 1 5 5 7 5 6 5 4 4 4 4 5 3 5 6 10 3 6 8 7 14 18 15 18 21 18 15 18 11 21 21 20 13 7 6 6 7 13 18
3 3 4 2 4 5 5 4 3 5 3 4 3 7 6 5 6 6 4 4 9 3 4 1 7 3 10 15 14 17 18 22 20 16 14 12 14 4 4 6 8 13 17 20 22
7 3 3 3 4 2 0 3 5 4 5 1 3 5 5 5 5 10 12 16 14 6 3 4 3 1 5 4 8 9 11 11 4 3 4 8 15 3 11 12 17 18 21 23 22
Wind_Direction
17 42 52 45 32 20 11 5 2 360 6 22 29 15 7 0 29 54 36 10 357 351 352 357 25 13 75 22 75 113 60 38 310 28 275 296 353 267 306 2 330 349 174 243 355
28 51 51 42 24 11 3 1 358 5 22 38 29 12 2 359 30 33 29 19 359 355 3 10 351 354 45 10 26 73 96 216 224 273 330 322 327 314 10 310 290 321 254 252 191
36 52 46 31 19 7 1 360 4 18 40 45 26 4 353 355 40 314 21 9 358 2 12 20 356 41 51 12 354 330 137 210 282 318 15 290 292 304 339 320 283 272 290 300 276
36 44 38 25 12 4 360 7 22 40 49 44 22 1 359 28 91 285 28 10 2 3 27 20 26 40 48 24 318 22 10 81 294 333 340 317 293 283 204 253 272 275 267 298 301
38 37 27 18 9 3 10 26 40 49 52 38 17 360 16 33 244 12 6 346 347 351 356 56 41 68 6 336 343 52 321 323 308 317 302 254 324 275 264 310 325 317 319 287 293
28 26 22 15 15 22 30 35 41 42 41 24 11 7 37 56 279 292 322 331 334 346 334 13 5 187 122 1 94 295 285 285 292 297 266 26 308 40 310 344 357 4 344 334 322
21 21 17 17 23 31 35 36 29 28 25 14 359 0 66 221 269 287 283 293 301 298 302 312 274 67 104 333 330 307 326 336 358 350 300 93 330 320 306 345 344 330 313 306 299
13 11 14 15 18 24 23 19 8 11 359 351 353 10 254 307 294 260 273 282 298 301 311 311 285 150 145 252 6 360 46 4 293 331 317 85 277 263 310 340 306 299 300 297 290
2 360 4 7 10 9 4 348 320 324 317 321 349 45 284 320 252 243 236 232 293 313 345 51 85 104 31 60 1 2 261 277 312 284 312 180 262 254 286 285 293 296 294 296 300
1 349 351 356 359 1 0 1 332 297 303 354 16 34 283 323 239 233 222 201 212 357 355 34 36 67 43 68 292 276 265 256 255 283 215 256 261 262 294 310 294 301 319 320 310
2 344 333 343 348 356 5 4 18 354 101 207 229 255 284 285 301 244 240 139 81 57 22 348 47 296 248 211 227 254 230 248 267 262 281 240 270 266 252 292 300 322 332 326 311
1 352 320 332 335 340 4 88 194 259 306 243 248 248 262 286 311 291 187 135 143 242 94 14 268 237 249 278 262 284 286 314 304 355 318 292 285 267 214 231 257 349 329 324 318
359 353 327 318 328 5 20 5 318 284 41 303 196 211 236 153 220 272 152 178 176 200 228 164 245 308 314 2 24 329 116 294 271 302 262 284 280 283 265 344 338 339 289 301 306
357 349 336 320 97 349 333 347 340 200 55 288 10 333 22 182 287 291 217 151 193 207 235 219 289 277 341 131 98 316 285 320 307 326 280 160 290 217 331 320 300 315 326 330 326
354 342 329 327 318 93 330 339 327 111 40 310 11 25 333 99 330 341 14 16 219 227 106 245 281 296 158 218 221 238 329 264 287 255 334 285 355 263 352 316 307 301 317 322 342
348 331 308 258 276 317 338 329 98 48 255 345 31 2 19 359 3 343 7 22 310 349 342 256 281 83 180 275 111 265 340 350 44 86 3 263 99 268 278 234 290 295 66 12 335
344 320 239 221 191 337 334 42 45 112 343 355 337 351 124 343 12 24 349 3 25 2 344 329 312 103 38 4 355 37 41 332 346 360 233 262 320 243 264 254 237 288 39 47 352
355 42 190 239 282 318 351 54 83 55 356 22 334 340 73 18 18 352 8 354 7 91 161 129 315 331 353 151 272 281 149 161 259 234 268 313 239 253 227 272 290 261 90 31 341
36 49 39 36 293 324 67 61 181 244 276 347 328 53 344 14 352 12 330 258 162 50 63 316 260 277 304 148 119 274 166 189 200 248 274 243 282 315 271 289 289 338 358 327 328
18 4 23 346 305 47 72 148 134 336 119 78 93 340 298 311 22 5 328 289 337 175 140 249 288 253 237 20 13 138 180 38 15 288 255 266 266 245 295 280 279 290 288 307 315
17 50 1 340 315 45 107 217 312 356 356 189 212 245 232 280 224 259 259 299 35 305 319 120 140 271 260 215 223 319 311 131 136 218 279 290 258 218 288 294 274 275 250 288 295
21 51 358 352 44 20 40 321 295 341 343 299 112 139 232 273 261 248 232 217 23 101 324 275 187 256 249 259 262 182 203 175 129 264 230 270 275 254 251 259 300 286 297 290 277
51 273 1 37 58 345 322 319 335 348 5 25 54 74 349 266 333 238 259 279 328 17 323 235 295 333 313 352 8 188 194 208 177 162 240 266 272 242 281 297 258 250 272 292 295
55 9 339 34 59 89 354 314 333 343 65 354 326 52 344 260 223 273 285 292 335 295 286 171 200 195 253 262 231 272 262 269 233 240 273 258 278 284 287 281 284 311 318 302 297
27 78 165 324 352 351 318 357 350 0 341 20 3 30 307 279 268 247 280 296 271 267 282 161 234 198 251 261 271 268 277 276 257 256 256 275 278 281 294 292 291 283 286 290 293
65 32 359 298 310 343 5 13 341 329 268 302 23 317 294 246 230 281 263 250 247 296 226 204 275 233 277 268 257 262 268 267 271 271 261 272 281 315 321 297 297 306 307 306 303
21 31 97 291 349 33 209 319 321 6 295 339 316 297 272 267 260 262 250 265 258 282 232 208 221 50 263 331 319 286 255 257 262 270 197 281 284 4 324 314 311 315 310 302 296